Jackson, MI

6:07 AM EST on December 16, 2019 (GMT -0500)
Jackson County-Reynolds

Weather History for KJXN - May, 2019

Change the Weather History Date:

Saturday, May 4, 2019

  Actual Average Record
Temperature  
Mean Temperature 54 °F 54 °F  
Max Temperature 63 °F 66 °F 87 °F (1949)
Min Temperature 45 °F 43 °F 26 °F (1966)
Degree Days  
Heating Degree Days 11 11  
Month to date heating degree days 44 47  
Since 1 July heating degree days 6441 6393  
Cooling Degree Days 0 0  
Month to date cooling degree days 0 0  
Year to date cooling degree days 0 6  
Growing Degree Days 4 (Base 50)    
Moisture  
Dew Point 42 °F    
Average Humidity 65    
Maximum Humidity 86    
Minimum Humidity 43    
Precipitation  
Precipitation 0.00 in 0.11 in 0.64 in (1993)
Month to date precipitation 0.18 0.41  
Year to date precipitation 8.42 7.70  
Sea Level Pressure  
Sea Level Pressure 29.97 in    
Wind  
Wind Speed 5 mph (NNE)    
Max Wind Speed 12 mph    
Max Gust Speed 17 mph    
Visibility 10 miles    
Events      
T = Trace of Precipitation, MM = Missing Value Source: NWS Daily Summary

Daily Weather History Graph

Daily Weather History Graph

Search for Another Location

Airport or City:

Astronomy

May. 04, 2019 Rise Set
Actual Time 6:29 AM EDT 8:40 PM EDT
Civil Twilight 5:58 AM EDT 9:11 PM EDT
Nautical Twilight 5:20 AM EDT 9:49 PM EDT
Astronomical Twilight 4:39 AM EDT 10:31 PM EDT
Moon 6:42 AM EDT (5/4) 8:27 PM EDT (5/4)
Length of Visible Light 15h 12m
Length of Day
14h 10m
Waning Crescent, 0% of the Moon is Illuminated
May 4
Waning Crescent
May 4
New
May 11
First Quarter
May 18
Full
May 26
Last Quarter

Hourly Weather History & Observations

Time (EDT) Temp. Windchill Dew Point Humidity Pressure Visibility Wind Dir Wind Speed Gust Speed Precip Events Conditions
12:56 AM 46.9 °F - 42.1 °F 83% 30.02 in 10.0 mi ENE 4.6 mph - N/A   Overcast
1:56 AM 46.9 °F - 42.1 °F 83% 29.99 in 10.0 mi East 5.8 mph - N/A   Overcast
2:07 AM 48.0 °F - 42.1 °F 80% 29.99 in 10.0 mi Calm Calm - N/A   Overcast
2:19 AM 48.0 °F - 42.1 °F 80% 29.99 in 10.0 mi Calm Calm - N/A   Overcast
2:56 AM 46.9 °F - 43.0 °F 86% 29.98 in 10.0 mi ENE 3.5 mph - N/A   Overcast
3:56 AM 48.0 °F - 42.1 °F 80% 29.99 in 10.0 mi NNW 3.5 mph - N/A   Overcast
4:56 AM 46.9 °F - 41.0 °F 80% 30.01 in 10.0 mi NW 3.5 mph - N/A   Overcast
5:56 AM 46.9 °F - 41.0 °F 80% 30.00 in 10.0 mi North 5.8 mph - N/A   Overcast
6:56 AM 46.0 °F 43.9 °F 39.9 °F 79% 30.00 in 10.0 mi NNW 4.6 mph - N/A   Overcast
7:56 AM 46.9 °F - 41.0 °F 80% 30.04 in 10.0 mi North 3.5 mph - N/A   Overcast
8:56 AM 48.0 °F - 41.0 °F 77% 30.04 in 10.0 mi North 6.9 mph - N/A   Overcast
9:56 AM 50.0 °F - 42.1 °F 74% 30.03 in 10.0 mi North 4.6 mph - N/A   Overcast
10:56 AM 54.0 °F - 39.0 °F 57% 30.02 in 10.0 mi North 9.2 mph 16.1 mph N/A   Overcast
11:56 AM 55.9 °F - 41.0 °F 57% 30.00 in 10.0 mi NNW 9.2 mph - N/A   Clear
12:56 PM 55.9 °F - 41.0 °F 57% 29.99 in 10.0 mi North 8.1 mph - N/A   Clear
1:56 PM 57.9 °F - 42.1 °F 56% 29.98 in 10.0 mi NNE 6.9 mph - N/A   Clear
2:56 PM 61.0 °F - 43.0 °F 52% 29.96 in 10.0 mi NNE 6.9 mph - N/A   Clear
3:56 PM 61.0 °F - 41.0 °F 48% 29.94 in 10.0 mi Variable 3.5 mph - N/A   Clear
4:56 PM 62.1 °F - 42.1 °F 48% 29.93 in 10.0 mi Variable 5.8 mph - N/A   Clear
5:56 PM 63.0 °F - 39.9 °F 43% 29.92 in 10.0 mi Variable 4.6 mph - N/A   Clear
6:56 PM 61.0 °F - 42.1 °F 50% 29.91 in 10.0 mi NNE 5.8 mph - N/A   Clear
7:56 PM 61.0 °F - 41.0 °F 48% 29.91 in 10.0 mi North 4.6 mph - N/A   Clear
8:56 PM 57.0 °F - 41.0 °F 55% 29.91 in 10.0 mi NNE 3.5 mph - N/A   Clear
9:56 PM 54.0 °F - 42.1 °F 64% 29.91 in 10.0 mi Calm Calm - N/A   Clear
10:56 PM 53.1 °F - 44.1 °F 71% 29.92 in 10.0 mi ESE 6.9 mph - N/A   Clear
11:56 PM 51.1 °F - 45.0 °F 80% 29.93 in 10.0 mi SE 6.9 mph - N/A   Clear